N9XTN-3 Weather Reports


Display with metric or nautical units.
time (UTC)temp
F
wind
direction
speed
MPH
gust
MPH
rain 1hr
in
rain 24hr
in
rain mn
in
humidity
%
barometer
mb
20260504174515 80 0 12.0 23.0 0.00 0.00 0.00 30 1001.9
20260504174015 80 293 8.0 17.0 0.00 0.00 0.00 29 1001.8
20260504173515 80 270 9.0 19.0 0.00 0.00 0.00 31 1001.9
20260504173015 80 293 9.0 14.0 0.00 0.00 0.00 31 1001.8
20260504172516 80 293 8.0 15.0 0.00 0.00 0.00 32 1001.8
20260504172016 79 293 8.0 15.0 0.00 0.00 0.00 31 1001.9
20260504171516 79 293 8.0 15.0 0.00 0.00 0.00 32 1001.9
20260504171036 79 270 8.0 14.0 0.00 0.00 0.00 32 1002.0
20260504170516 78 293 10.0 15.0 0.00 0.00 0.00 32 1002.0
20260504151016 71 225 3.0 6.0 0.00 0.00 0.00 44 1002.1
20260504150516 71 248 3.0 8.0 0.00 0.00 0.00 40 1002.1
20260504141016 63 270 2.0 5.0 0.00 0.00 0.00 51 1002.4
20260504140536 63 270 3.0 5.0 0.00 0.00 0.00 53 1002.5
20260504130516 55 293 4.0 7.0 0.00 0.00 0.00 73 1003.0
20260504110516 46 0.0 0.0 0.00 0.00 0.00 87 1002.1
20260504100516 46 0.0 0.0 0.00 0.00 0.00 86 1002.3
20260504081516 51 0.0 2.0 0.00 0.00 0.00 75 1003.3
20260504081016 51 203 1.0 3.0 0.00 0.00 0.00 75 1003.2
20260504080516 51 203 2.0 3.0 0.00 0.00 0.00 76 1003.3
20260504050516 55 0.0 0.0 0.00 0.00 0.00 74 1005.9
20260504050016 55 0.0 0.0 0.00 0.00 0.00 73 1006.0
20260504045517 55 0.0 0.0 0.00 0.00 0.00 73 1006.1
20260504045018 55 0.0 0.0 0.00 0.00 0.00 72 1006.2
20260504044517 55 0.0 0.0 0.00 0.00 0.00 71 1006.2
20260504044019 56 0.0 0.0 0.00 0.00 0.00 70 1006.2
20260504043516 56 0.0 2.0 0.00 0.00 0.00 69 1006.2
20260504043017 56 0.0 1.0 0.00 0.00 0.00 68 1006.3
20260504042518 56 203 1.0 3.0 0.00 0.00 0.00 68 1006.3
20260504042018 57 203 1.0 2.0 0.00 0.00 0.00 65 1006.3
20260504041538 58 0.0 2.0 0.00 0.00 0.00 63 1006.4
20260504041016 58 0.0 0.0 0.00 0.00 0.00 58 1006.4
20260504040518 59 0.0 0.0 0.00 0.00 0.00 58 1006.4
20260504040016 59 0.0 0.0 0.00 0.00 0.00 57 1006.6
20260504035536 59 0.0 0.0 0.00 0.00 0.00 57 1006.6
20260504035016 59 0.0 0.0 0.00 0.00 0.00 56 1006.5
20260504034516 59 0.0 2.0 0.00 0.00 0.00 57 1006.6
20260504034016 60 0.0 1.0 0.00 0.00 0.00 57 1006.8
20260504033516 60 203 1.0 3.0 0.00 0.00 0.00 57 1006.8
20260504033016 59 248 2.0 3.0 0.00 0.00 0.00 55 1006.8
20260504032516 59 0.0 2.0 0.00 0.00 0.00 57 1006.9
20260504032016 59 0.0 1.0 0.00 0.00 0.00 55 1006.8
20260504031516 59 248 1.0 2.0 0.00 0.00 0.00 57 1006.9
20260504031016 60 0.0 2.0 0.00 0.00 0.00 56 1006.9
20260504030536 60 248 1.0 2.0 0.00 0.00 0.00 57 1006.9
20260504030016 61 0.0 3.0 0.00 0.00 0.00 58 1006.9
20260504025516 61 0.0 2.0 0.00 0.00 0.00 56 1007.0
20260504025016 61 0.0 1.0 0.00 0.00 0.00 49 1006.9
20260504024516 61 0.0 1.0 0.00 0.00 0.00 50 1006.9
20260504024056 62 315 1.0 2.0 0.00 0.00 0.00 50 1007.0
20260504023516 62 0.0 2.0 0.00 0.00 0.00 50 1007.1
20260504023016 62 0.0 0.0 0.00 0.00 0.00 51 1007.0
20260504022516 63 0.0 0.0 0.00 0.00 0.00 51 1007.0
20260504022016 63 0.0 0.0 0.00 0.00 0.00 47 1007.0
20260504021516 63 0.0 2.0 0.00 0.00 0.00 47 1007.0
20260504021016 63 315 1.0 2.0 0.00 0.00 0.00 48 1007.1
20260504020516 64 0.0 3.0 0.00 0.00 0.00 46 1007.1
20260504020016 64 0.0 0.0 0.00 0.00 0.00 45 1007.1
20260504015516 65 0.0 1.0 0.00 0.00 0.00 44 1007.3
20260504015056 65 0.0 1.0 0.00 0.00 0.00 42 1007.2
20260504014516 66 0.0 1.0 0.00 0.00 0.00 41 1007.3
20260504014017 66 0.0 0.0 0.00 0.00 0.00 39 1007.3
20260504013516 67 0.0 0.0 0.00 0.00 0.00 39 1007.3
20260504013016 67 0.0 1.0 0.00 0.00 0.00 40 1007.3
20260504012536 68 315 1.0 1.0 0.00 0.00 0.00 37 1007.3
20260504012036 69 0.0 0.0 0.00 0.00 0.00 37 1007.3
20260504011516 70 0.0 0.0 0.00 0.00 0.00 36 1007.3
20260504011016 70 0.0 0.0 0.00 0.00 0.00 35 1007.4
20260504010516 71 0.0 0.0 0.00 0.00 0.00 34 1007.4
20260504010016 72 0.0 0.0 0.00 0.00 0.00 35 1007.6
20260504005516 73 0.0 0.0 0.00 0.00 0.00 37 1007.6
20260504005016 74 0.0 0.0 0.00 0.00 0.00 34 1007.6
20260504004516 75 0.0 1.0 0.00 0.00 0.00 31 1007.7
20260504004016 75 0.0 2.0 0.00 0.00 0.00 30 1007.7
20260504003516 75 315 1.0 4.0 0.00 0.00 0.00 28 1007.7
20260504003016 76 293 1.0 3.0 0.00 0.00 0.00 28 1007.8
20260504002516 76 293 2.0 4.0 0.00 0.00 0.00 28 1007.9
20260504002016 76 338 2.0 4.0 0.00 0.00 0.00 28 1008.0
20260504001516 76 293 2.0 5.0 0.00 0.00 0.00 28 1008.0
20260504001016 76 293 2.0 4.0 0.00 0.00 0.00 28 1008.1
20260504000516 76 293 2.0 5.0 0.00 0.00 0.00 28 1008.2
20260504000016 76 293 3.0 4.0 0.00 0.00 0.00 29 1008.2
20260503235536 76 293 4.0 6.0 0.00 0.00 0.00 28 1008.3
20260503235016 76 270 4.0 7.0 0.00 0.00 0.00 28 1008.3
20260503234516 76 270 2.0 5.0 0.00 0.00 0.00 28 1008.3
20260503234036 76 293 3.0 6.0 0.00 0.00 0.00 27 1008.3
20260503233516 76 293 2.0 5.0 0.00 0.00 0.00 27 1008.3
20260503233016 76 270 3.0 5.0 0.00 0.00 0.00 27 1008.3
20260503232516 76 338 4.0 10.0 0.00 0.00 0.00 27 1008.3
20260503232016 76 270 4.0 8.0 0.00 0.00 0.00 27 1008.3
20260503231516 76 270 2.0 7.0 0.00 0.00 0.00 29 1008.4
20260503231016 76 225 3.0 7.0 0.00 0.00 0.00 27 1008.3
20260503230516 77 315 2.0 3.0 0.00 0.00 0.00 31 1008.5
20260503230016 76 270 1.0 3.0 0.00 0.00 0.00 27 1008.4
20260503225516 76 270 2.0 6.0 0.00 0.00 0.00 28 1008.4
20260503225016 76 270 4.0 8.0 0.00 0.00 0.00 28 1008.6
20260503224516 76 293 5.0 8.0 0.00 0.00 0.00 27 1008.6
20260503224016 76 270 4.0 9.0 0.00 0.00 0.00 28 1008.6
20260503223516 76 270 4.0 8.0 0.00 0.00 0.00 28 1008.6
20260503223016 76 270 4.0 8.0 0.00 0.00 0.00 29 1008.6
20260503222516 76 248 5.0 10.0 0.00 0.00 0.00 29 1008.6
20260503222016 76 293 4.0 9.0 0.00 0.00 0.00 31 1008.7
20260503221536 77 225 3.0 9.0 0.00 0.00 0.00 32 1008.9
20260503221016 76 270 5.0 10.0 0.00 0.00 0.00 29 1008.9
20260503220516 76 270 2.0 7.0 0.00 0.00 0.00 34 1009.0
20260503220016 76 293 4.0 8.0 0.00 0.00 0.00 30 1008.9
20260503215516 76 270 4.0 8.0 0.00 0.00 0.00 31 1009.0
20260503215016 76 203 3.0 8.0 0.00 0.00 0.00 36 1008.9
20260503214516 76 248 5.0 9.0 0.00 0.00 0.00 34 1009.0
20260503214016 76 248 5.0 9.0 0.00 0.00 0.00 33 1009.0
20260503213516 76 293 5.0 9.0 0.00 0.00 0.00 31 1009.2
20260503213016 76 270 5.0 10.0 0.00 0.00 0.00 30 1009.3
20260503212536 76 203 3.0 8.0 0.00 0.00 0.00 31 1009.4
20260503212016 76 225 3.0 5.0 0.00 0.00 0.00 35 1009.4
20260503211516 75 180 2.0 4.0 0.00 0.00 0.00 31 1009.5
20260503211036 75 270 2.0 5.0 0.00 0.00 0.00 31 1009.5
20260503210516 75 248 3.0 8.0 0.00 0.00 0.00 30 1009.5
20260503210016 76 248 5.0 13.0 0.00 0.00 0.00 32 1009.8
20260503205516 76 270 3.0 11.0 0.00 0.00 0.00 35 1009.9
20260503205016 75 293 4.0 8.0 0.00 0.00 0.00 34 1010.0
20260503204516 75 270 4.0 8.0 0.00 0.00 0.00 33 1010.0
20260503204016 75 0 4.0 10.0 0.00 0.00 0.00 31 1010.0
20260503203516 75 293 4.0 8.0 0.00 0.00 0.00 30 1010.1
20260503203016 75 270 4.0 9.0 0.00 0.00 0.00 32 1010.2
20260503202536 75 315 5.0 11.0 0.00 0.00 0.00 31 1010.2
20260503202016 75 0 8.0 15.0 0.00 0.00 0.00 30 1010.3
20260503201516 74 248 3.0 7.0 0.00 0.00 0.00 32 1010.2
20260503201016 74 270 3.0 6.0 0.00 0.00 0.00 34 1010.3
20260503200516 74 68 1.0 5.0 0.00 0.00 0.00 32 1010.3
20260503200036 74 293 5.0 10.0 0.00 0.00 0.00 30 1010.5
20260503195516 74 0 7.0 18.0 0.00 0.00 0.00 30 1010.6
20260503195016 74 0 4.0 10.0 0.00 0.00 0.00 31 1010.7
20260503194536 73 0 11.0 19.0 0.00 0.00 0.00 31 1010.7
20260503194016 73 0 8.0 19.0 0.00 0.00 0.00 31 1010.7
20260503193516 73 0 6.0 11.0 0.00 0.00 0.00 31 1010.6
20260503193016 73 338 5.0 11.0 0.00 0.00 0.00 33 1010.8
20260503192516 72 0 7.0 14.0 0.00 0.00 0.00 31 1010.7
20260503192036 72 0 6.0 12.0 0.00 0.00 0.00 31 1010.8
20260503191536 72 338 4.0 9.0 0.00 0.00 0.00 32 1010.8
20260503191036 72 338 6.0 16.0 0.00 0.00 0.00 33 1011.1
20260503190516 72 0 9.0 16.0 0.00 0.00 0.00 31 1011.0
20260503190016 72 0 6.0 12.0 0.00 0.00 0.00 31 1011.0
20260503185516 73 338 7.0 13.0 0.00 0.00 0.00 31 1011.1
20260503185016 73 0 11.0 21.0 0.00 0.00 0.00 31 1011.1
20260503184516 73 0 9.0 19.0 0.00 0.00 0.00 31 1011.1
20260503184036 72 0 8.0 16.0 0.00 0.00 0.00 31 1011.2
20260503183516 72 0 7.0 12.0 0.00 0.00 0.00 31 1011.3
20260503183016 73 0 8.0 19.0 0.00 0.00 0.00 31 1011.2
20260503182516 72 338 7.0 19.0 0.00 0.00 0.00 31 1011.2
20260503182016 72 0 7.0 13.0 0.00 0.00 0.00 31 1011.2
20260503181516 72 23 7.0 15.0 0.00 0.00 0.00 32 1011.4
20260503181016 72 23 4.0 13.0 0.00 0.00 0.00 32 1011.3
20260503180516 72 23 3.0 8.0 0.00 0.00 0.00 33 1011.4
20260503180016 72 0 6.0 16.0 0.00 0.00 0.00 33 1011.5
20260503175516 71 23 4.0 11.0 0.00 0.00 0.00 34 1011.5
20260503175056 71 23 5.0 10.0 0.00 0.00 0.00 34 1011.7